#timestamp,LO_Frequency,Hit,StdDev 
1576134015.8,286047000.9,N
1576134035.6,286046998.7,N
1576134055.5,286046998.1,N
1576134075.3,286046998.6,N
1576134095.1,286046997.0,N
1576134115.9,286046998.4,N
1576134135.7,286046996.9,N
1576134155.5,286046996.9,N
1576134175.4,286046997.8,N
1576134195.2,286046997.1,N
1576134215.1,286046999.1,N
1576134216.0,286046999.1,N
1576134235.8,286046998.8,N
1576134255.6,286046999.2,N
1576134275.5,286046999.1,N
1576134295.3,286046998.5,N
1576134315.2,286046999.2,N
1576134335.9,286046999.0,N
1576134355.7,286047000.8,N
1576134375.6,286047002.7,N
1576134395.4,286047001.9,N
1576134415.2,286047001.1,N
1576134435.1,286046998.3,N
1576134436.0,286046998.3,N
1576134455.8,286046996.5,N
1576134475.7,286046996.7,N
1576134495.5,286046997.3,N
1576134515.3,286046997.7,N
1576134535.2,286046995.3,N
1576134555.0,286046995.3,N
1576134555.9,286046995.3,N
1576134575.7,286046995.1,N
1576134595.6,286046995.5,N
1576134615.4,286046993.5,Y
1576134635.3,286046995.3,P
1576134655.1,286046995.4,P
1576134675.8,286046995.8,P
1576134695.7,286046996.0,Y
1576134715.5,286046998.9,P
1576134735.4,286047000.1,N
1576134755.2,286047001.6,N
1576134775.0,286047004.4,N
1576134775.9,286047004.4,N
1576134795.8,286047004.3,N
1576134815.6,286047003.7,N
1576134835.4,286047002.1,N
1576134855.3,286047004.4,N
1576134875.1,286047004.1,N
1576134895.9,286047002.1,N
1576134915.7,286047002.5,N
1576134935.5,286047002.8,N
1576134955.4,286047002.7,N
1576134975.2,286046999.8,N
1576134995.0,286047000.8,N
1576134995.9,286047000.8,N
1576135015.8,286047000.4,N
1576135035.6,286046999.7,N
1576135055.5,286047000.7,N
1576135075.3,286047001.1,N
1576135095.1,286047002.4,N
1576135115.9,286047002.8,N
1576135135.7,286046998.2,N
1576135155.5,286046998.2,N
1576135175.4,286047000.7,N
1576135195.2,286047002.4,N
1576135215.1,286047002.8,N
1576135216.0,286047002.8,N
1576135235.8,286047000.0,N
1576135255.6,286047001.1,N
1576135275.5,286046998.9,N
1576135295.3,286047000.3,N
1576135315.2,286047000.5,N
1576135335.9,286046998.8,N
1576135355.7,286046998.2,N
1576135375.6,286046998.8,N
1576135395.4,286047000.4,N
1576135415.2,286047001.1,N
1576135435.1,286046998.3,N
1576135436.0,286046998.3,N
1576135455.8,286047001.1,N
1576135475.7,286047002.4,N
1576135495.5,286047000.5,N
1576135515.3,286047002.6,N
1576135535.2,286047002.8,N
1576135555.0,286047004.4,N
1576135555.9,286047004.4,N
1576135575.8,286047002.9,N
1576135595.6,286047003.5,N
1576135615.4,286047005.4,N
1576135635.3,286047005.3,N
1576135655.1,286047005.9,N
1576135675.8,286047003.2,N
1576135695.7,286047005.7,N
1576135715.5,286047004.9,N
1576135735.4,286047005.1,N
1576135755.2,286047003.5,N
1576135775.0,286047001.8,N
1576135775.9,286047001.8,N
1576135795.8,286047001.9,N
1576135815.6,286047002.1,N
1576135835.4,286047000.5,N
1576135855.3,286047000.0,N
1576135875.1,286047000.3,N
1576135895.9,286046999.9,N
1576135915.7,286047000.5,N
1576135935.5,286047000.8,N
1576135955.4,286046999.1,N
1576135975.2,286046998.6,N
1576135995.0,286046998.7,N
1576135996.0,286046998.7,N
1576136015.8,286046999.2,N
1576136035.6,286046997.1,N
1576136055.5,286046997.0,N
1576136075.3,286046997.4,N
1576136095.1,286046998.8,N
1576136115.9,286046999.4,N
1576136135.7,286046998.9,N
1576136155.6,286046999.4,N
1576136175.4,286046999.1,N
1576136195.2,286046996.9,N
1576136215.1,286046996.7,N
1576136216.0,286046996.7,N
1576136235.8,286046997.2,N
1576136255.6,286046997.0,N
1576136275.5,286046997.7,N
1576136295.3,286046997.1,N
1576136315.2,286046996.9,N
1576136335.9,286046998.7,N
1576136355.7,286046999.3,N
1576136375.6,286046997.1,N
1576136395.4,286046996.7,N
1576136415.2,286046996.7,N
1576136435.1,286046998.6,N
1576136436.0,286046998.6,N
1576136455.8,286047000.5,N
1576136475.7,286046998.7,N
1576136495.5,286046998.1,N
1576136515.3,286047001.1,N
1576136535.2,286047001.1,N
1576136555.0,286046998.3,N
1576136555.9,286046998.3,N
1576136575.8,286046999.0,N
1576136595.6,286046996.8,N
1576136615.4,286046998.9,N
1576136635.3,286046998.4,N
1576136655.1,286047001.0,N
1576136675.8,286046998.2,N
1576136695.7,286046999.6,N
1576136715.5,286046996.5,N
1576136735.4,286046996.7,N
1576136755.2,286046997.1,N
1576136775.0,286046997.4,N
1576136775.9,286046997.4,N
1576136795.8,286046995.0,Y
1576136815.6,286046999.0,P
1576136835.5,286046997.4,P
1576136855.3,286046996.6,P
1576136875.1,286046999.5,N
1576136895.9,286046998.6,N
1576136915.7,286046999.0,N
1576136935.5,286046999.0,N
1576136955.4,286046996.5,Y
1576136975.2,286046998.1,P
1576136995.1,286046998.8,P
1576136996.0,286046998.8,P
1576137015.8,286046998.7,Y
1576137035.6,286047000.0,P
1576137055.5,286047001.0,N
1576137075.3,286046998.8,N
1576137095.2,286046998.8,N
1576137115.9,286046998.1,N
1576137135.7,286047001.1,N
1576137155.6,286046998.5,N
1576137175.4,286046998.2,N
1576137195.2,286046999.7,N
1576137215.1,286046999.9,N
1576137216.0,286046999.9,N
1576137235.8,286047002.5,N
1576137255.7,286047002.1,N
1576137275.5,286047002.4,N
1576137295.3,286047002.1,N
1576137315.2,286047000.2,N
1576137335.0,286047000.3,N
1576137335.9,286047000.3,N
1576137355.7,286047001.1,N
1576137375.6,286047000.3,N
1576137395.4,286047000.0,N
1576137415.3,286047002.3,N
1576137435.1,286046999.8,N
1576137436.0,286046999.8,N
1576137455.8,286046999.7,N
1576137475.7,286046999.8,N
1576137495.5,286047002.4,N
1576137515.3,286046999.9,N
1576137535.2,286047002.8,N
1576137555.0,286047002.3,N
1576137555.9,286047002.3,N
1576137575.8,286047002.4,N
1576137595.6,286046999.9,N
